^^
Datos históricos de la estación: Murcia-Puente Tocinos
Diario Informe para Febrero 2, 2019 Unidades:  Inglés    Métrico   Ambas
Diario Semanal Mensual Anual Configurable
  Máximo: Mínimo: Media:
Temperatura: 57.9 °F 50.2 °F 54.1 °F
Punto de rocio: 34.2 °F 22.5 °F 28 °F
Humedad: 51% 26% 37%
Velocidad viento: 23mph 6.4mph 14.8mph
Racha viento: 39mph - -
Viento- - West
Presión: 30 in 29.5 in -
Precipitación: 0 in    
Historical Graphs
 
 
Tabla de datos para Febrero 2, 2019
Hora Temperatura Punto de rocio Presión Viento Velocidad viento Racha viento Humedad Intensidad lluvia(por hora) Nubes
00:00 55 °F 32.4 °F 29.5 in SW 12 mph 20 mph 42% 0 in CLR
00:05 55.2 °F 31.3 °F 29.5 in WSW 11.8 mph 21.9 mph 40% 0 in CLR
00:10 55.2 °F 31.3 °F 29.5 in WSW 13 mph 20.1 mph 40% 0 in CLR
00:15 55 °F 31.1 °F 29.5 in WSW 13 mph 17.5 mph 40% 0 in CLR
00:20 55 °F 31.1 °F 29.5 in SSW 13 mph 17.3 mph 40% 0 in CLR
00:25 54.9 °F 30.9 °F 29.5 in SSW 13 mph 20.7 mph 40% 0 in CLR
00:30 54.9 °F 30.4 °F 29.5 in WSW 12.3 mph 19.6 mph 39% 0 in CLR
00:35 54.7 °F 30.2 °F 29.5 in West 12.3 mph 18.4 mph 39% 0 in CLR
00:40 54.7 °F 30.2 °F 29.5 in WSW 13.5 mph 18.4 mph 39% 0 in CLR
00:45 54.7 °F 30.2 °F 29.5 in WSW 13.5 mph 21.9 mph 39% 0 in CLR
00:50 54.5 °F 30 °F 29.5 in WSW 13.7 mph 19 mph 39% 0 in CLR
00:55 54.3 °F 30.6 °F 29.5 in WSW 14 mph 21 mph 40% 0 in CLR
01:00 54.3 °F 30.6 °F 29.5 in WSW 13 mph 21 mph 40% 0 in CLR
01:05 54.1 °F 30.4 °F 29.5 in WSW 12.5 mph 17.3 mph 40% 0 in CLR
01:10 54.1 °F 30.9 °F 29.5 in SW 11.8 mph 20.7 mph 41% 0 in CLR
01:15 54 °F 30.7 °F 29.5 in SW 11.8 mph 16.1 mph 41% 0 in CLR
01:20 53.8 °F 31.8 °F 29.5 in WSW 12.3 mph 23 mph 43% 0 in CLR
01:25 53.8 °F 31.8 °F 29.5 in WSW 12.3 mph 23 mph 43% 0 in CLR
01:30 53.8 °F 31.8 °F 29.5 in SW 13.5 mph 17.3 mph 43% 0 in CLR
01:35 53.4 °F 32 °F 29.5 in SW 13.5 mph 17.8 mph 44% 0 in CLR
01:40 53.2 °F 32.4 °F 29.5 in SW 10.2 mph 15 mph 45% 0 in CLR
01:45 52.9 °F 32.5 °F 29.5 in SSW 10.2 mph 17.3 mph 46% 0 in CLR
01:50 52.7 °F 33.1 °F 29.5 in SW 10.7 mph 21.9 mph 47% 0 in CLR
01:55 52.5 °F 33.4 °F 29.5 in WSW 10.7 mph 20.7 mph 48% 0 in CLR
02:00 52.5 °F 34 °F 29.5 in SW 13 mph 21 mph 49% 0 in CLR
02:05 52.3 °F 33.6 °F 29.5 in SW 12.3 mph 16.1 mph 49% 0 in CLR
02:10 52.3 °F 34.2 °F 29.5 in SSW 11.2 mph 16.1 mph 50% 0 in CLR
02:15 52.2 °F 34.2 °F 29.5 in SW 11.2 mph 17.3 mph 50% 0 in CLR
02:20 52.2 °F 34.2 °F 29.5 in SW 11.4 mph 15 mph 50% 0 in CLR
02:25 52 °F 34 °F 29.5 in SW 11.4 mph 21.9 mph 50% 0 in CLR
02:30 52 °F 34 °F 29.5 in SSW 11.2 mph 17.3 mph 50% 0 in CLR
02:35 52 °F 34 °F 29.5 in SSW 11.2 mph 16.1 mph 50% 0 in CLR
02:40 52 °F 34 °F 29.5 in SW 10.7 mph 16.1 mph 50% 0 in CLR
02:45 51.6 °F 34.2 °F 29.5 in SW 10.7 mph 15 mph 51% 0 in CLR
02:50 51.6 °F 34.2 °F 29.5 in SSW 9.7 mph 17.3 mph 51% 0 in CLR
02:55 51.8 °F 33.6 °F 29.5 in SSW 9.7 mph 16.1 mph 50% 0 in CLR
03:00 52 °F 34 °F 29.5 in SW 12 mph 21 mph 50% 0 in CLR
03:05 52 °F 33.4 °F 29.5 in SSW 11.2 mph 21.9 mph 49% 0 in CLR
03:10 52.2 °F 33.6 °F 29.5 in SW 10 mph 22 mph 49% 0 in CLR
03:15 52.3 °F 33.3 °F 29.5 in West 10 mph 24.2 mph 48% 0 in CLR
03:20 52.2 °F 33.1 °F 29.5 in WSW 14.5 mph 17.3 mph 48% 0 in CLR
03:25 52.2 °F 33.1 °F 29.5 in West 14.5 mph 21.5 mph 48% 0 in CLR
03:30 52.3 °F 33.3 °F 29.5 in SW 12.3 mph 15 mph 48% 0 in CLR
03:35 52.3 °F 32.7 °F 29.5 in SW 12.3 mph 19.7 mph 47% 0 in CLR
03:40 52.3 °F 32.7 °F 29.5 in SW 12.5 mph 18.4 mph 47% 0 in CLR
03:45 52.2 °F 32.5 °F 29.5 in WSW 12.5 mph 17.3 mph 47% 0 in CLR
03:50 52.2 °F 32 °F 29.5 in WSW 12.3 mph 20.7 mph 46% 0 in CLR
03:55 52.5 °F 31.3 °F 29.5 in SW 12.3 mph 26.5 mph 44% 0 in CLR
04:00 52.9 °F 31.5 °F 29.5 in WSW 15 mph 27 mph 44% 0 in CLR
04:05 53.2 °F 31.3 °F 29.5 in West 15.2 mph 28.8 mph 43% 0 in CLR
04:10 53.2 °F 30.7 °F 29.5 in West 17 mph 22.3 mph 42% 0 in CLR
04:15 53.2 °F 30.7 °F 29.5 in WSW 17 mph 24.2 mph 42% 0 in CLR
04:20 53.2 °F 30.7 °F 29.5 in West 14.7 mph 17.3 mph 42% 0 in CLR
04:25 53.1 °F 30.6 °F 29.5 in West 14.7 mph 19.6 mph 42% 0 in CLR
04:30 52.9 °F 30.9 °F 29.5 in WSW 12.3 mph 20.7 mph 43% 0 in CLR
04:35 52.7 °F 30.7 °F 29.5 in WSW 12.3 mph 21.9 mph 43% 0 in CLR
04:40 52.5 °F 30.6 °F 29.5 in WSW 13 mph 19.6 mph 43% 0 in CLR
04:45 52.5 °F 30.6 °F 29.5 in WSW 13 mph 24.2 mph 43% 0 in CLR
04:50 52.7 °F 30.7 °F 29.5 in WSW 14.7 mph 20.7 mph 43% 0 in CLR
04:55 52.9 °F 30.4 °F 29.5 in West 14.7 mph 31.1 mph 42% 0 in CLR
05:00 52.9 °F 30.4 °F 29.5 in WSW 18 mph 31 mph 42% 0 in CLR
05:05 52.9 °F 30.4 °F 29.5 in West 18.1 mph 27.6 mph 42% 0 in CLR
05:10 52.9 °F 30.4 °F 29.5 in NW 16.8 mph 21.9 mph 42% 0 in CLR
05:15 52.9 °F 30.4 °F 29.5 in SW 16.8 mph 23 mph 42% 0 in CLR
05:20 52.9 °F 29.8 °F 29.5 in WSW 16.3 mph 27.6 mph 41% 0 in CLR
05:25 52.7 °F 29.7 °F 29.5 in West 16.3 mph 27.9 mph 41% 0 in CLR
05:30 52.7 °F 30.2 °F 29.5 in WSW 16.3 mph 20.7 mph 42% 0 in CLR
05:35 52.5 °F 30 °F 29.5 in SW 16.3 mph 24.2 mph 42% 0 in CLR
05:40 52.7 °F 29.7 °F 29.5 in SW 14.7 mph 18.4 mph 41% 0 in CLR
05:45 52.5 °F 30 °F 29.5 in WSW 14.7 mph 15 mph 42% 0 in CLR
05:50 52.3 °F 29.8 °F 29.5 in WSW 13 mph 18.4 mph 42% 0 in CLR
05:55 52.3 °F 29.8 °F 29.5 in WNW 13 mph 24.2 mph 42% 0 in CLR
06:00 52.3 °F 29.8 °F 29.5 in WSW 14 mph 25 mph 42% 0 in CLR
06:05 52.3 °F 29.8 °F 29.5 in SW 13.5 mph 25.3 mph 42% 0 in CLR
06:10 52.3 °F 29.8 °F 29.5 in West 13.5 mph 13.8 mph 42% 0 in CLR
06:15 52.3 °F 29.8 °F 29.5 in SSW 13.5 mph 10.4 mph 42% 0 in CLR
06:20 52.3 °F 29.8 °F 29.5 in SW 9.7 mph 12.7 mph 42% 0 in CLR
06:25 52.5 °F 30 °F 29.5 in West 9.7 mph 20.7 mph 42% 0 in CLR
06:30 52.9 °F 29.8 °F 29.5 in SW 10.7 mph 24.2 mph 41% 0 in CLR
06:35 52.9 °F 29.8 °F 29.5 in SW 10.7 mph 25.3 mph 41% 0 in CLR
06:40 52.9 °F 29.8 °F 29.5 in South 13.5 mph 16.1 mph 41% 0 in CLR
06:45 52.7 °F 29.7 °F 29.5 in South 13.5 mph 19.6 mph 41% 0 in CLR
06:50 52.9 °F 29.8 °F 29.5 in WSW 10.7 mph 25.3 mph 41% 0 in CLR
06:55 52.9 °F 29.8 °F 29.5 in WSW 10.7 mph 17.3 mph 41% 0 in CLR
07:00 52.9 °F 29.8 °F 29.5 in WSW 13 mph 26 mph 41% 0 in CLR
07:05 52.9 °F 29.8 °F 29.5 in WNW 13 mph 21.9 mph 41% 0 in CLR
07:10 52.7 °F 30.2 °F 29.5 in West 13 mph 18.4 mph 42% 0 in CLR
07:15 52.5 °F 30 °F 29.5 in WSW 13 mph 25.3 mph 42% 0 in CLR
07:20 52.5 °F 30.6 °F 29.5 in WSW 13.5 mph 21.9 mph 43% 0 in CLR
07:25 52.5 °F 30.6 °F 29.5 in West 13.5 mph 20.7 mph 43% 0 in CLR
07:30 52.3 °F 30.9 °F 29.5 in WNW 14 mph 23 mph 44% 0 in CLR
07:35 52.2 °F 30.9 °F 29.5 in NW 14 mph 23 mph 44% 0 in CLR
07:40 52.2 °F 31.5 °F 29.5 in West 13 mph 20.7 mph 45% 0 in CLR
07:45 52.2 °F 31.5 °F 29.5 in West 13 mph 25.3 mph 45% 0 in CLR
07:50 52.2 °F 31.5 °F 29.5 in WSW 14.7 mph 13.8 mph 45% 0 in CLR
07:55 52 °F 31.8 °F 29.5 in NNE 14.7 mph 16.1 mph 46% 0 in CLR
08:00 52 °F 31.8 °F 29.5 in West 10 mph 25 mph 46% 0 in CLR
08:05 52 °F 31.3 °F 29.6 in SSW 10 mph 19 mph 45% 0 in CLR
08:10 52.2 °F 31.5 °F 29.6 in WSW 10.2 mph 17.3 mph 45% 0 in CLR
08:15 52.2 °F 31.5 °F 29.6 in WSW 10.2 mph 12.7 mph 45% 0 in CLR
08:20 52.2 °F 31.5 °F 29.6 in WSW 9.2 mph 11.8 mph 45% 0 in FEW
08:25 52.3 °F 30.9 °F 29.6 in WSW 9.2 mph 16.1 mph 44% 0 in FEW
08:30 52.2 °F 31.5 °F 29.6 in West 12.3 mph 8.1 mph 45% 0 in FEW
08:35 52 °F 31.3 °F 29.6 in SW 12.3 mph 8.1 mph 45% 0 in FEW
08:40 52 °F 31.3 °F 29.6 in SW 6.4 mph 11.5 mph 45% 0 in FEW
08:45 51.8 °F 31.1 °F 29.6 in WSW 6.4 mph 10.4 mph 45% 0 in FEW
08:50 51.6 °F 30.9 °F 29.6 in SW 7.4 mph 12.7 mph 45% 0 in FEW
08:55 51.8 °F 31.1 °F 29.6 in SW 7.4 mph 13.8 mph 45% 0 in FEW
09:00 52 °F 30.7 °F 29.6 in WSW 8 mph 23 mph 44% 0 in FEW
09:05 52.5 °F 30.6 °F 29.6 in West 8.5 mph 24.8 mph 43% 0 in FEW
09:10 53.1 °F 31.1 °F 29.6 in WSW 13 mph 25.3 mph 43% 0 in FEW
09:15 53.1 °F 31.1 °F 29.6 in West 13 mph 31.3 mph 43% 0 in FEW
09:20 53.2 °F 30.7 °F 29.6 in NW 14 mph 16.1 mph 42% 0 in FEW
09:25 53.4 °F 30.9 °F 29.6 in West 14 mph 21.9 mph 42% 0 in FEW
09:30 53.4 °F 30.9 °F 29.6 in West 13.5 mph 19.6 mph 42% 0 in FEW
09:35 53.6 °F 30.9 °F 29.6 in WNW 13.5 mph 19.6 mph 42% 0 in FEW
09:40 53.8 °F 31.3 °F 29.6 in NNW 14.7 mph 28.8 mph 42% 0 in FEW
09:45 53.8 °F 31.3 °F 29.6 in SW 14.7 mph 36.8 mph 42% 0 in FEW
09:50 53.6 °F 30.4 °F 29.6 in WNW 20.1 mph 26.5 mph 41% 0 in FEW
09:55 53.8 °F 30.6 °F 29.6 in NW 20.1 mph 19.6 mph 41% 0 in FEW
10:00 53.8 °F 30.6 °F 29.6 in WNW 15 mph 32 mph 41% 0 in FEW
10:05 54 °F 29.5 °F 29.6 in West 15.2 mph 32.2 mph 39% 0 in FEW
10:10 54.1 °F 30.4 °F 29.6 in WSW 17.5 mph 24.2 mph 40% 0 in FEW
10:15 54 °F 30.2 °F 29.6 in West 17.5 mph 21.9 mph 40% 0 in FEW
10:20 54 °F 29.5 °F 29.6 in West 13.7 mph 29.9 mph 39% 0 in FEW
10:25 54 °F 29.5 °F 29.6 in West 13.7 mph 24.2 mph 39% 0 in FEW
10:30 54 °F 29.5 °F 29.6 in SSW 14.7 mph 20.7 mph 39% 0 in FEW
10:35 54 °F 29.5 °F 29.7 in WSW 14.7 mph 23 mph 39% 0 in FEW
10:40 54.1 °F 29.1 °F 29.7 in NW 14.5 mph 27.6 mph 38% 0 in FEW
10:45 54.1 °F 29.1 °F 29.7 in NNE 14.5 mph 18.4 mph 38% 0 in FEW
10:50 54.1 °F 29.1 °F 29.7 in West 14 mph 31.1 mph 38% 0 in FEW
10:55 54.1 °F 29.1 °F 29.7 in West 14 mph 28.8 mph 38% 0 in FEW
11:00 54.5 °F 28.8 °F 29.7 in West 16 mph 32 mph 37% 0 in FEW
11:05 54.7 °F 28.9 °F 29.7 in SW 16.3 mph 29.4 mph 37% 0 in FEW
11:10 54.9 °F 29.1 °F 29.7 in WNW 18.5 mph 20.7 mph 37% 0 in FEW
11:15 55 °F 29.1 °F 29.7 in West 18.5 mph 32.2 mph 37% 0 in FEW
11:20 55.2 °F 28.8 °F 29.7 in WNW 17 mph 27.6 mph 36% 0 in FEW
11:25 55.4 °F 28.9 °F 29.7 in West 17 mph 24.2 mph 36% 0 in FEW
11:30 55.6 °F 28.9 °F 29.7 in WNW 14.5 mph 23 mph 36% 0 in FEW
11:35 55.9 °F 29.3 °F 29.7 in WSW 14.5 mph 22.5 mph 36% 0 in FEW
11:40 55.9 °F 28.8 °F 29.7 in NW 14.5 mph 27.6 mph 35% 0 in FEW
11:45 55.9 °F 28.8 °F 29.7 in West 14.5 mph 28.8 mph 35% 0 in FEW
11:50 56.1 °F 28.8 °F 29.7 in West 16.8 mph 23 mph 35% 0 in FEW
11:55 56.1 °F 28 °F 29.7 in West 16.8 mph 32.4 mph 34% 0 in FEW
12:00 56.1 °F 28.8 °F 29.7 in West 17 mph 32 mph 35% 0 in FEW
12:05 55.9 °F 27.9 °F 29.7 in WNW 16.8 mph 35.7 mph 34% 0 in FEW
12:10 55.9 °F 27.9 °F 29.7 in WNW 19.2 mph 24.2 mph 34% 0 in FEW
12:15 56.1 °F 27.3 °F 29.7 in WNW 19.2 mph 24.2 mph 33% 0 in FEW
12:20 56.5 °F 27.7 °F 29.7 in West 17.8 mph 16.1 mph 33% 0 in FEW
12:25 56.5 °F 27.7 °F 29.7 in WNW 17.8 mph 20.7 mph 33% 0 in FEW
12:30 56.7 °F 27.1 °F 29.7 in WNW 15.9 mph 26.5 mph 32% 0 in FEW
12:35 56.7 °F 27.1 °F 29.7 in WNW 15.9 mph 35.7 mph 32% 0 in FEW
12:40 56.8 °F 27.3 °F 29.7 in West 19.7 mph 29.9 mph 32% 0 in FEW
12:45 56.7 °F 27.9 °F 29.7 in West 19.7 mph 26.5 mph 33% 0 in FEW
12:50 56.8 °F 27.3 °F 29.7 in NW 20.1 mph 27.6 mph 32% 0 in FEW
12:55 57.4 °F 27.7 °F 29.7 in WNW 20.1 mph 24.2 mph 32% 0 in FEW
13:00 57.4 °F 27.7 °F 29.7 in WNW 17 mph 39 mph 32% 0 in FEW
13:05 57.2 °F 27.7 °F 29.7 in WNW 16.8 mph 23.7 mph 32% 0 in FEW
13:10 57.6 °F 27.9 °F 29.7 in West 19.2 mph 24.2 mph 32% 0 in FEW
13:15 57.9 °F 28.2 °F 29.7 in NW 19.2 mph 25.3 mph 32% 0 in FEW
13:20 57.6 °F 27.9 °F 29.7 in West 16.3 mph 34.5 mph 32% 0 in FEW
13:25 57.2 °F 27.7 °F 29.7 in NW 16.3 mph 35.7 mph 32% 0 in FEW
13:30 57.2 °F 27.7 °F 29.7 in WNW 16.8 mph 35.7 mph 32% 0 in FEW
13:35 57.6 °F 27.1 °F 29.7 in West 16.8 mph 32.2 mph 31% 0 in FEW
13:40 57.6 °F 27.9 °F 29.7 in WNW 18.1 mph 26.5 mph 32% 0 in FEW
13:45 57.9 °F 27.3 °F 29.7 in WNW 18.1 mph 32.2 mph 31% 0 in
13:50 57.6 °F 27.1 °F 29.7 in WNW 17.8 mph 35.1 mph 31% 0 in CLR
13:55 57.7 °F 27.3 °F 29.7 in WNW 17.8 mph 32.2 mph 31% 0 in CLR
14:00 57.6 °F 27.1 °F 29.7 in WNW 22 mph 37 mph 31% 0 in CLR
14:05 57.6 °F 27.1 °F 29.7 in WNW 22.3 mph 19.6 mph 31% 0 in CLR
14:10 57.9 °F 27.3 °F 29.7 in NW 17.8 mph 23 mph 31% 0 in CLR
14:15 57.9 °F 26.6 °F 29.7 in WNW 17.8 mph 29.9 mph 30% 0 in CLR
14:20 57.4 °F 26.2 °F 29.7 in NW 16.8 mph 34.5 mph 30% 0 in CLR
14:25 57.4 °F 26.2 °F 29.7 in WNW 16.8 mph 29.7 mph 30% 0 in CLR
14:30 57.4 °F 26.2 °F 29.7 in WNW 20.4 mph 21.9 mph 30% 0 in CLR
14:35 56.8 °F 25.7 °F 29.7 in WNW 20.4 mph 34.5 mph 30% 0 in CLR
14:40 57 °F 25.9 °F 29.7 in WNW 20.1 mph 27.9 mph 30% 0 in CLR
14:45 57.2 °F 26.1 °F 29.7 in WNW 20.1 mph 32.2 mph 30% 0 in CLR
14:50 57.6 °F 27.1 °F 29.7 in NW 18.1 mph 23 mph 31% 0 in CLR
14:55 57.4 °F 26.2 °F 29.7 in West 18.1 mph 32.2 mph 30% 0 in CLR
15:00 57 °F 25.9 °F 29.7 in WNW 21 mph 39 mph 30% 0 in CLR
15:05 57 °F 25.9 °F 29.7 in WNW 20.8 mph 34.5 mph 30% 0 in CLR
15:10 57.6 °F 26.2 °F 29.7 in West 21.9 mph 38 mph 30% 0 in CLR
15:15 57.6 °F 26.2 °F 29.7 in WNW 21.9 mph 29.9 mph 30% 0 in CLR
15:20 57.2 °F 26.1 °F 29.7 in NW 21.5 mph 31.1 mph 30% 0 in CLR
15:25 56.8 °F 25.7 °F 29.7 in NW 21.5 mph 38 mph 30% 0 in CLR
15:30 56.7 °F 25.5 °F 29.7 in West 23 mph 31.1 mph 30% 0 in CLR
15:35 56.8 °F 25.7 °F 29.7 in NW 23 mph 24.2 mph 30% 0 in CLR
15:40 57 °F 25.9 °F 29.7 in WNW 20.4 mph 27.9 mph 30% 0 in CLR
15:45 57 °F 25 °F 29.7 in NW 20.4 mph 34.5 mph 29% 0 in CLR
15:50 56.8 °F 25 °F 29.8 in WNW 21.3 mph 34.5 mph 29% 0 in CLR
15:55 57 °F 25 °F 29.8 in West 21.3 mph 25.3 mph 29% 0 in CLR
16:00 56.8 °F 25 °F 29.8 in WNW 20 mph 32 mph 29% 0 in CLR
16:05 56.8 °F 24.1 °F 29.8 in WNW 19.7 mph 24.2 mph 28% 0 in CLR
16:10 57 °F 24.3 °F 29.8 in NW 19 mph 32.2 mph 28% 0 in CLR
16:15 56.8 °F 24.1 °F 29.8 in WNW 19 mph 26.3 mph 28% 0 in CLR
16:20 56.8 °F 25 °F 29.8 in NNW 17.8 mph 28.8 mph 29% 0 in CLR
16:25 57 °F 25 °F 29.8 in West 17.8 mph 29.9 mph 29% 0 in CLR
16:30 57 °F 24.3 °F 29.8 in NW 19.2 mph 26.5 mph 28% 0 in CLR
16:35 57.2 °F 24.3 °F 29.8 in NW 19.2 mph 26.5 mph 28% 0 in CLR
16:40 57.2 °F 24.3 °F 29.8 in WNW 20.4 mph 33.4 mph 28% 0 in CLR
16:45 57.4 °F 24.4 °F 29.8 in WNW 20.4 mph 27.5 mph 28% 0 in CLR
16:50 57 °F 24.3 °F 29.8 in NW 19.2 mph 28.8 mph 28% 0 in CLR
16:55 56.8 °F 24.1 °F 29.8 in WNW 19.2 mph 34.5 mph 28% 0 in CLR
17:00 56.7 °F 23.9 °F 29.8 in WNW 17 mph 37 mph 28% 0 in CLR
17:05 56.7 °F 24.6 °F 29.8 in NW 17 mph 36 mph 29% 0 in CLR
17:10 56.7 °F 24.6 °F 29.8 in NW 18.5 mph 20.7 mph 29% 0 in CLR
17:15 56.7 °F 24.6 °F 29.8 in West 18.5 mph 21.9 mph 29% 0 in CLR
17:20 56.7 °F 23.9 °F 29.8 in NW 14.5 mph 21.9 mph 28% 0 in CLR
17:25 56.7 °F 23.9 °F 29.8 in NW 14.5 mph 24.2 mph 28% 0 in CLR
17:30 56.7 °F 23.9 °F 29.8 in West 15.9 mph 27.3 mph 28% 0 in CLR
17:35 57 °F 23.4 °F 29.8 in West 15.9 mph 35.7 mph 27% 0 in CLR
17:40 57.2 °F 23.5 °F 29.8 in NNW 18.1 mph 29.9 mph 27% 0 in CLR
17:45 57 °F 23.4 °F 29.8 in WSW 18.1 mph 31.1 mph 27% 0 in CLR
17:50 57 °F 22.5 °F 29.8 in West 18.5 mph 26.5 mph 26% 0 in CLR
17:55 57 °F 23.4 °F 29.8 in WNW 18.5 mph 15 mph 27% 0 in CLR
17:59 56.8 °F 23.2 °F 29.8 in SW 16.8 mph 23 mph 27% 0 in CLR
18:05 56.8 °F 23.2 °F 29.8 in West 16.8 mph 27.6 mph 27% 0 in CLR
18:10 56.7 °F 23 °F 29.8 in WNW 15.6 mph 25.3 mph 27% 0 in CLR
18:15 56.5 °F 22.8 °F 29.8 in West 15.6 mph 18.4 mph 27% 0 in CLR
18:20 56.5 °F 22.8 °F 29.8 in NNW 17 mph 29.9 mph 27% 0 in CLR
18:25 56.1 °F 22.6 °F 29.8 in NW 17 mph 25.3 mph 27% 0 in CLR
18:30 56.1 °F 22.6 °F 29.8 in WNW 15.9 mph 20.7 mph 27% 0 in CLR
18:35 55.9 °F 23.4 °F 29.8 in NW 15.9 mph 19.6 mph 28% 0 in CLR
18:40 55.9 °F 23.4 °F 29.8 in WNW 14 mph 26.5 mph 28% 0 in CLR
18:45 55.8 °F 23.9 °F 29.8 in West 14 mph 23 mph 29% 0 in CLR
18:50 55.8 °F 23.9 °F 29.8 in NW 17 mph 21.9 mph 29% 0 in CLR
18:55 55.6 °F 23.7 °F 29.8 in West 17 mph 20.7 mph 29% 0 in CLR
19:00 55.6 °F 24.6 °F 29.8 in WNW 14 mph 21 mph 30% 0 in CLR
19:05 55.4 °F 24.4 °F 29.9 in West 14 mph 19.6 mph 30% 0 in CLR
19:10 55.2 °F 24.3 °F 29.9 in WNW 12.3 mph 10.4 mph 30% 0 in CLR
19:15 55.2 °F 24.3 °F 29.9 in West 12.3 mph 21.9 mph 30% 0 in CLR
19:20 55.2 °F 24.3 °F 29.9 in NW 11.4 mph 23 mph 30% 0 in CLR
19:25 55 °F 24.1 °F 29.9 in WNW 11.4 mph 23 mph 30% 0 in CLR
19:30 54.9 °F 24.1 °F 29.9 in NW 14 mph 24.2 mph 30% 0 in CLR
19:35 54.7 °F 24.6 °F 29.9 in NNW 14 mph 19 mph 31% 0 in CLR
19:40 54.7 °F 24.6 °F 29.9 in WNW 12.3 mph 24.2 mph 31% 0 in CLR
19:45 54.7 °F 24.6 °F 29.9 in WNW 12.3 mph 21.9 mph 31% 0 in CLR
19:50 54.5 °F 25.2 °F 29.9 in WNW 14.7 mph 29.9 mph 32% 0 in CLR
19:55 54.3 °F 25.2 °F 29.9 in NW 14.7 mph 25.3 mph 32% 0 in CLR
20:00 54.3 °F 25.9 °F 29.9 in WNW 15 mph 21 mph 33% 0 in CLR
20:05 54.1 °F 25.5 °F 29.9 in WNW 15.2 mph 16.1 mph 33% 0 in CLR
20:10 54 °F 25.5 °F 29.9 in NNW 11.2 mph 19.6 mph 33% 0 in CLR
20:15 54 °F 26.2 °F 29.9 in NW 11.2 mph 22.3 mph 34% 0 in CLR
20:20 53.8 °F 26.1 °F 29.9 in NW 13.7 mph 15 mph 34% 0 in CLR
20:25 53.6 °F 25.9 °F 29.9 in West 13.7 mph 13.8 mph 34% 0 in CLR
20:30 53.4 °F 26.4 °F 29.9 in NW 10.2 mph 10.4 mph 35% 0 in CLR
20:35 53.4 °F 26.4 °F 29.9 in WNW 10.2 mph 16.1 mph 35% 0 in CLR
20:40 53.2 °F 26.2 °F 29.9 in WNW 8.7 mph 20.7 mph 35% 0 in CLR
20:45 53.2 °F 26.2 °F 29.9 in WSW 8.7 mph 13.8 mph 35% 0 in CLR
20:50 53.1 °F 26.1 °F 29.9 in WNW 9.7 mph 13.8 mph 35% 0 in CLR
20:55 53.1 °F 26.1 °F 29.9 in WNW 9.7 mph 18.4 mph 35% 0 in CLR
21:00 53.1 °F 26.1 °F 29.9 in West 10 mph 16 mph 35% 0 in CLR
21:05 52.9 °F 25.9 °F 29.9 in WNW 10 mph 12.7 mph 35% 0 in CLR
21:10 52.7 °F 25.9 °F 29.9 in WNW 8.7 mph 18.4 mph 35% 0 in CLR
21:15 52.7 °F 25.9 °F 29.9 in SW 8.7 mph 12.7 mph 35% 0 in CLR
21:20 52.5 °F 25 °F 29.9 in West 10 mph 20.7 mph 34% 0 in CLR
21:25 52.5 °F 25 °F 29.9 in WSW 10 mph 20.7 mph 34% 0 in CLR
21:30 52.3 °F 25.5 °F 29.9 in West 12.5 mph 15.2 mph 35% 0 in CLR
21:35 52.3 °F 25.5 °F 29.9 in West 12.5 mph 20.1 mph 35% 0 in CLR
21:40 52.3 °F 24.8 °F 29.9 in WSW 12.5 mph 33.4 mph 34% 0 in CLR
21:45 52.3 °F 24.8 °F 29.9 in WNW 12.5 mph 33.5 mph 34% 0 in CLR
21:50 52.3 °F 24.8 °F 29.9 in West 16.3 mph 25.3 mph 34% 0 in CLR
21:55 52.2 °F 24.6 °F 29.9 in NNW 16.3 mph 27.6 mph 34% 0 in CLR
22:00 52.2 °F 24.6 °F 29.9 in West 15 mph 35 mph 34% 0 in CLR
22:05 52.2 °F 24.6 °F 29.9 in West 15.2 mph 17.3 mph 34% 0 in CLR
22:10 52 °F 24.4 °F 29.9 in West 17.5 mph 17.3 mph 34% 0 in CLR
22:15 52 °F 24.4 °F 29.9 in WNW 17.5 mph 16.1 mph 34% 0 in CLR
22:20 52 °F 23.7 °F 29.9 in West 13.5 mph 28.8 mph 33% 0 in CLR
22:25 52 °F 23.7 °F 29.9 in NW 13.5 mph 28.8 mph 33% 0 in CLR
22:30 51.8 °F 22.8 °F 29.9 in West 19.7 mph 26.5 mph 32% 0 in CLR
22:35 51.6 °F 23.4 °F 29.9 in West 19.7 mph 17.3 mph 33% 0 in CLR
22:40 51.4 °F 23.4 °F 29.9 in West 15.2 mph 24.2 mph 33% 0 in CLR
22:45 51.3 °F 23.2 °F 29.9 in NW 15.2 mph 21.9 mph 33% 0 in CLR
22:50 51.3 °F 23.2 °F 29.9 in West 14 mph 24.2 mph 33% 0 in CLR
22:55 51.1 °F 22.8 °F 29.9 in WNW 14 mph 27.6 mph 33% 0 in CLR
23:00 51.1 °F 22.8 °F 29.9 in WNW 15 mph 32 mph 33% 0 in CLR
23:05 51.1 °F 22.8 °F 29.9 in WNW 14.7 mph 34.5 mph 33% 0 in CLR
23:10 51.1 °F 22.8 °F 29.9 in WNW 20.1 mph 35.1 mph 33% 0 in CLR
23:15 50.9 °F 22.8 °F 29.9 in West 20.1 mph 26.5 mph 33% 0 in CLR
23:20 50.7 °F 22.6 °F 30 in WNW 20.4 mph 23 mph 33% 0 in CLR
23:25 50.7 °F 22.6 °F 30 in West 20.4 mph 24.2 mph 33% 0 in CLR
23:30 50.5 °F 23.2 °F 30 in WNW 16.8 mph 17.3 mph 34% 0 in CLR
23:35 50.4 °F 23 °F 30 in West 16.8 mph 18.4 mph 34% 0 in CLR
23:40 50.4 °F 23 °F 30 in West 13 mph 21.9 mph 34% 0 in CLR
23:45 50.4 °F 23.7 °F 30 in West 13 mph 20.7 mph 35% 0 in CLR
23:50 50.4 °F 23.7 °F 30 in WNW 14.5 mph 23 mph 35% 0 in CLR
23:55 50.2 °F 23.5 °F 30 in NW 14.5 mph 18.4 mph 35% 0 in CLR
Murcia-Puente Tocinos, España
Compliments of Weather Underground - 2.75 mb

La estación de MeteoMurcia.com, publica sus datos en los siguientes proyectos:

Weather Underground PWS IMURCIAP2 Meteoclimatic www.awekas.at

W3Counter
Web Analytics